Location: Unspecified
(0.0000°N, 0.0000°E)
Time: 19:03:21
(UTC+02:00)

BREEZE-M DEB (TANK) - Visible Passes

Search period start: 30 August 2016 00:00
Search period end: 09 September 2016 00:00
Orbit: 313 x 16359 km, 49.4° (Epoch: 30 August)

Date Brightness Start Highest point End Pass type
(mag) Time Alt. Az. Time Alt. Az. Time Alt. Az.
30 Aug 7.5 01:26:28 10° NW 01:54:54 26° W 01:54:54 26° W visible
30 Aug 7.0 18:38:53 10° NW 21:21:28 42° NE 21:39:23 27° E visible
31 Aug 7.9 02:32:20 10° W 02:35:30 11° W 02:35:30 11° W visible
31 Aug 6.6 19:51:23 10° NNW 22:11:08 55° NE 22:19:59 45° E visible
01 Sep 6.4 20:59:34 10° NNW 22:57:41 71° NE 23:00:36 68° E visible
02 Sep 6.3 22:04:29 10° NW 23:41:14 85° W 23:41:14 85° W visible
03 Sep 6.6 23:08:33 10° NW 00:21:54 58° W 00:21:54 58° W visible
05 Sep 7.0 00:13:31 10° NW 01:02:34 36° W 01:02:34 36° W visible
05 Sep 7.1 17:27:34 10° NW 20:19:14 40° NE 20:47:07 13° E visible
06 Sep 7.5 01:20:23 10° WNW 01:43:15 19° W 01:43:15 19° W visible
06 Sep 6.7 18:35:58 10° NW 21:10:45 51° NE 21:27:48 27° E visible
07 Sep 6.3 19:43:14 10° NNW 21:58:38 66° NE 22:08:29 44° ESE visible
08 Sep 6.1 20:48:04 10° NNW 22:43:52 86° NE 22:49:11 64° SE visible
